Regional Weather Roundup
Issued by NWS

Home | Current Version | Previous Version | Graphics & Text | Print | Product List | Glossary On
Versions: 1 2 3 4 5 6 7 8 9 10 11 12 13 14 15 16 17 18 19 20 21 22 23 24 25 26 27 28 29 30 31 32 33 34 35 36 37 38 39 40 41 42 43 44 45 46 47 48 49 50
000
ASUS43 KLSX 180157
RWRMO

WEATHER SUMMARY FOR MISSOURI
NATIONAL WEATHER SERVICE SPRINGFIELD MO
800 PM CST FRI NOV 17 2017

NOTE: "FAIR" INDICATES FEW OR NO CLOUDS BELOW 12,000 FEET WITH NO
       SIGNIFICANT WEATHER AND/OR OBSTRUCTIONS TO VISIBILITY.
       CURRENT SKY AND/OR WEATHER CONDITIONS ARE NOT AVAILABLE FOR
       CHILLICOTHE AND FARMINGTON.

MOZ001>031-035>038-043-044-053-054-180300-
...NORTHERN AND WESTERN MISSOURI...

CITY           SKY/WX    TMP DP  RH WIND       PRES   REMARKS
KANSAS CTY INT CLOUDY    61  59  93 S9        29.48S
LEE`S SUMMIT   PTCLDY    64  61  90 S10       29.49F
ST JOSEPH      CLOUDY    52  51  97 NE5       29.48S FOG
CHILLICOTHE      N/A     57  56  96 CALM      29.52F

$$
MOZ066>068-077>081-088>096-101>105-180300-
...SOUTHWEST MISSOURI...

CITY           SKY/WX    TMP DP  RH WIND       PRES   REMARKS
SPRINGFIELD    MOCLDY    65  61  87 S15       29.60S
JOPLIN         MOCLDY    70  63  78 S16G26    29.55F
BRANSON        PTCLDY    66  59  77 S13G18    29.65F

$$
MOZ032>034-039>042-045>050-055>058-069>072-180300-
...CENTRAL MISSOURI...

CITY           SKY/WX    TMP DP  RH WIND       PRES   REMARKS
COLUMBIA       NOT AVBL
JEFFERSON CITY CLEAR     64  57  78 SE7       29.56F
SEDALIA        PTCLDY    65  61  87 S14       29.52F
WHITEMAN AFB   CLEAR     62  58  86 S12       29.47F
WARRENSBURG    CLEAR     61  55  82 SE6       29.50S

$$
MOZ051-052-059>065-180300-
...EAST CENTRAL MISSOURI...

CITY           SKY/WX    TMP DP  RH WIND       PRES   REMARKS
ST LOUIS INTL  CLOUDY    56  50  80 S15       29.64F

$$
MOZ072>076-082>087-097>100-106>115-180300-
...SOUTH CENTRAL AND SOUTHEAST MISSOURI...

CITY           SKY/WX    TMP DP  RH WIND       PRES   REMARKS
CAPE GIRARDEAU CLOUDY    63  51  65 S21G29    29.71F
POPLAR BLUFF   CLOUDY    67  58  72 S17G24    29.69F
WEST PLAINS    CLOUDY    66  60  81 S12       29.68S

$$



USA.gov is the U.S. government's official web portal to all federal, state and local government web resources and services.